Location: Unspecified
(49.2170°N, 0.0000°E)
Time: 02:33:25
(UTC+00:00)

Transit 2A - Pass Details

Date: 19 June 2019
Orbit: 600 x 959 km, 66.7° (Epoch: 14 October)

Event Time Altitude Azimuth Distance (km) Brightness Sun altitude
Rises 07:23:13 0° 322° (NW) 3,560 9.1 30.7°
Reaches altitude 10° 07:26:25 10° 336° (NNW) 2,566 8.6 31.2°
Maximum altitude 07:31:01 23° 27° (NNE) 1,751 8.4 32.0°
Drops below altitude 10° 07:35:18 10° 78° (ENE) 2,377 9.9 32.7°
Sets 07:38:08 0° 94° (E) 3,235 10.3 33.1°
